Location: ČR
(50.0000°N, 15.0000°E)
Time: 22:00:16
(UTC+01:00)

BlueWalker 3 - Visible Passes

Search period start: 18 January 2026 00:00
Search period end: 28 January 2026 00:00
Orbit: 451 x 463 km, 53.2° (Epoch: 18 January)

Date Brightness Start Highest point End Pass type
(mag) Time Alt. Az. Time Alt. Az. Time Alt. Az.
20 Jan 4.0 18:58:31 10° SSW 18:59:37 17° S 18:59:37 17° S visible
21 Jan 3.3 18:23:29 10° S 18:26:00 21° SE 18:26:00 21° SE visible
22 Jan 3.6 17:48:33 10° S 17:50:56 17° SE 17:52:18 14° ESE visible
22 Jan 3.8 19:24:24 10° WSW 19:26:03 25° SW 19:26:03 25° SW visible
23 Jan 3.9 17:13:48 10° SSE 17:15:39 14° SE 17:17:30 10° ESE visible
23 Jan 1.9 18:49:03 10° SW 18:52:17 60° S 18:52:17 60° S visible
24 Jan 2.0 18:13:42 10° SW 18:17:11 52° SSE 18:18:26 33° E visible
24 Jan 4.6 19:51:11 10° W 19:52:10 17° W 19:52:10 17° W visible
25 Jan 2.4 17:38:24 10° SW 17:41:47 42° SE 17:44:31 14° ENE visible
25 Jan 2.9 19:15:41 10° W 19:18:15 42° WNW 19:18:15 42° WNW visible
26 Jan 1.8 18:40:11 10° W 18:43:45 68° NNW 18:44:17 56° NE visible
27 Jan 1.7 18:04:41 10° WSW 18:08:16 76° NNW 18:10:17 24° ENE visible
27 Jan 4.2 19:42:33 10° WNW 19:44:01 22° WNW 19:44:01 22° WNW visible
